NOAA 16 DEB, 41153

Orbit data source: Space-Track

NOAA 16 DEB, 41153 is space debris in SSO originally from a launch on Thu, 21 Sep 2000 UTC launched from the Air Force Western Test Range (AFWTR). Debris objects in space refer to the collection of defunct objects orbiting the Earth. Examples of debris include non-operational satellites, rocket bodies, and fragments generated from explosions, collisions, or faulty payload assembly.

Loading next visibility...
Identifier
41153, 2000-055CL
Orbit
SSO
Country
Flag of USUS
Related business
Manufacturer
Unknown
Mission
Spacecraft
Bus & Motor
Unknown
Mass
Unknown
Launch date (UTC)
2000-09-21 (25 years ago)
Launch vehicle
Unknown
Launch site
Air Force Western Test Range (AFWTR)
Object type
Payload
Rocket body
Debris
Shape & HBR
Unknown shape, 0.1 m
Radar Cross Section
Small (<0.1 m²)

Expand to show TLE details & history
Last TLE update: 10 hours ago

TLE from 10 hours ago
0 NOAA 16 DEB
1 41153U 00055CL  26034.09131242  .00006302  00000-0  21361-2 0  9997
2 41153  98.7816 147.1231 0018682 178.9847 181.1379 14.36984592527446
Epoch: 2026-02-03T02:11Z
TLE epoch observation values (Epoch: 2026-02-03T02:11:29.393Z)
Latitude
-0.00007°
Longitude
-19.02658°
Altitude
784.766 km
Speed
7.454 km/s
True Right ascension
09h 48m 29s
True Declination
0° 00' 00"
Sunlit
Object was in full shadow at epoch
Visualization orbit readout
Latitude
Unknown
Longitude
Unknown
Altitude
Unknown
Speed
Unknown
Apparent Right ascension
Unknown
Apparent Declination
Unknown
Sunlit
N/A
Visualization observer readout
Local Sidereal Time
14:21:08
Azimuth
Unknown
Elevation
Unknown
Doppler factor
Unknown
Orbital elements
Apogee altitude
778.964 km
Perigee altitude
752.272 km
Semi-major axis
7,143.755 km
Eccentricity
0.00187
Inclination
98.7816°
RAAN
147.1231°
Arg. of periapsis
178.9847°
True anomaly
181.13366°
Mean anomaly
181.1379°
Eccentric anomaly
181.13578°
Mean motion
3.59462 °/min
Orbital period
100.15 mins
BSTAR
0.0021361
Loading maneuver chart data...
Computing Atmospheric mass density...
Loading historical data...
Loading historical data...
Loading historical data...
Loading historical data...
Loading historical data...
Loading historical data...
Loading historical data...

Documentation

Showing up to 5 results
|